TimeCDT,TemperatureF,Dew PointF,Humidity,Sea Level PressureIn,VisibilityMPH,Wind Direction,Wind SpeedMPH,Gust SpeedMPH,PrecipitationIn,Events,Conditions,WindDirDegrees,DateUTC
12:51 AM,81.0,75.0,82,29.98,10.0,East,6.9,-,N/A,,Partly Cloudy,90,2013-09-12 05:51:00
1:51 AM,81.0,73.9,79,29.97,10.0,East,3.5,-,N/A,,Partly Cloudy,100,2013-09-12 06:51:00
2:51 AM,80.1,73.9,81,29.96,10.0,East,3.5,-,N/A,,Partly Cloudy,80,2013-09-12 07:51:00
3:51 AM,78.1,73.9,87,29.95,10.0,Calm,Calm,-,N/A,,Partly Cloudy,0,2013-09-12 08:51:00
4:51 AM,77.0,73.9,90,29.95,10.0,North,4.6,-,N/A,,Partly Cloudy,360,2013-09-12 09:51:00
5:41 AM,78.8,75.2,89,29.96,10.0,NNE,5.8,-,0.00,Rain,Rain,30,2013-09-12 10:41:00
5:51 AM,79.0,73.9,84,29.96,8.0,East,13.8,17.3,0.11,Rain,Light Rain,100,2013-09-12 10:51:00
6:51 AM,77.0,72.0,84,29.96,10.0,North,4.6,-,0.06,,Partly Cloudy,10,2013-09-12 11:51:00
7:51 AM,78.1,75.0,90,29.97,7.0,North,6.9,-,N/A,,Scattered Clouds,10,2013-09-12 12:51:00
8:51 AM,81.0,77.0,88,29.98,10.0,North,6.9,-,0.00,,Scattered Clouds,10,2013-09-12 13:51:00
9:51 AM,84.9,75.9,74,30.00,10.0,NE,11.5,-,N/A,,Scattered Clouds,50,2013-09-12 14:51:00
10:51 AM,84.0,75.0,74,30.01,10.0,NE,15.0,-,N/A,,Scattered Clouds,40,2013-09-12 15:51:00
11:51 AM,88.0,75.0,65,30.00,10.0,NE,8.1,-,N/A,,Scattered Clouds,50,2013-09-12 16:51:00
12:51 PM,89.1,75.9,65,29.99,10.0,East,11.5,-,N/A,,Scattered Clouds,80,2013-09-12 17:51:00
1:51 PM,91.0,72.0,53,29.96,10.0,ENE,12.7,-,N/A,,Scattered Clouds,60,2013-09-12 18:51:00
2:51 PM,91.0,71.1,52,29.94,10.0,East,13.8,-,N/A,,Scattered Clouds,80,2013-09-12 19:51:00
3:51 PM,91.0,73.0,55,29.91,10.0,East,15.0,-,N/A,,Scattered Clouds,90,2013-09-12 20:51:00
4:51 PM,89.1,73.9,61,29.90,10.0,East,17.3,-,N/A,,Scattered Clouds,80,2013-09-12 21:51:00
5:51 PM,89.1,72.0,57,29.89,10.0,East,15.0,-,N/A,,Partly Cloudy,100,2013-09-12 22:51:00
6:51 PM,87.1,73.0,63,29.90,10.0,East,13.8,-,N/A,,Partly Cloudy,90,2013-09-12 23:51:00
7:51 PM,84.9,73.9,69,29.90,10.0,East,11.5,-,N/A,,Partly Cloudy,90,2013-09-13 00:51:00
8:51 PM,84.0,73.0,69,29.91,10.0,East,9.2,-,N/A,,Partly Cloudy,90,2013-09-13 01:51:00
9:51 PM,82.9,73.0,72,29.93,10.0,East,8.1,-,N/A,,Partly Cloudy,90,2013-09-13 02:51:00
10:51 PM,82.0,73.9,76,29.93,10.0,East,4.6,-,N/A,,Partly Cloudy,90,2013-09-13 03:51:00
11:51 PM,81.0,73.9,79,29.93,10.0,East,4.6,-,N/A,,Partly Cloudy,100,2013-09-13 04:51:00